www.pogodaiklimat.ru

Погода и климат >> Архив погоды >> Индонезия >> Sintang


ПОГОДА в Sintang

  • Прогноз погоды в Sintang
  • Монитор погоды в Sintang
  • Климат города

АРХИВ ПОГОДЫ в Sintang

Время (UTC), дата Ветер
(напр.,м/с)
 
Видим.   Явления Облачность Т
(С)
Тd
(С)
f
(%)
Тe
(С)
Тes
(С)
Комфортность P
(гПа)
Po
(гПа)
Тmin
(С)
Tmax
(С)
R
(мм)
R24
(мм)
S
(см)
03 9.07 ЮВ 6 9000 м 4/3 400 м
[Cu hum Ac trans Ci fib]
+29.6 +23.2 69 +40 +45 очень
душно
1008.8 1005.7
06 9.07 Ю 4 9000 м 5/4 420 м
[Cu med, cong Ac trans Ci fib]
+32.6 +22.6 56 +42 +49 опасность
перегрева
1006.8 1003.6
09 9.07 Ю 3 8000 м 4/3 450 м
[Cu med, cong Ac trans Ci sp]
+32.6 +22.6 56 +42 +44 опасность
перегрева
1005.6 1002.4
00 10.07 ЮВ 2 6000 м 5/1 480 м
[Sc Ac trans Ci fib]
+24.5 +22.3 88 +32 +34 очень
душно
1009.3 1006.1 +22.8
03 10.07 Ю 2 7000 м 4/1 500 м
[Cu med, cong Ac trans Ci fib]
+29.6 +22.4 65 +39 +52 опасность
солнечного
удара
1009.2 1006.0
06 10.07 ЮВ 2 8000 м 4/4 450 м
[Cu med, cong Ci fib]
+31.9 +21.3 54 +40 +50 очень
душно
1007.6 1004.4
09 10.07 Ю 4 8000 м 3/1 500 м
[Cu med, cong Ci fib]
+31.5 +21.0 54 +39 +41 очень
душно
1006.2 1003.0
12 10.07 штиль 0 6000 м 3/1 480 м
[Cu med, cong Ci fib]
+27.3 +23.0 77 +36 +36 очень
душно
1008.4 1005.2 +32.7
00 11.07 ЮВ 2 6000 м 6/4 500 м
[Sc Ac trans Ci fib]
+25.0 +22.9 88 +33 +35 очень
душно
1011.1 1007.8 +22.5
03 11.07 Ю 3 8000 м 6/4 480 м
[Cu hum Ac trans Ci fib]
+29.2 +22.4 67 +38 +46 очень
душно
1011.7 1008.4
06 11.07 Ю 4 9000 м 8/4 480 м
[Cu hum Ac trans Ci fib]
+31.5 +21.1 54 +39 +44 очень
душно
1009.1 1005.8
09 11.07 Ю 3 8000 м 8/4 480 м
[Cu med, cong Ac trans Ci fib]
+31.2 +21.4 56 +39 +40 очень
душно
1007.0 1003.7
12 11.07 штиль 0 5000 м мгла 8/4 500 м
[Sc Ac trans Ci fib]
+26.5 +22.8 80 +35 +35 очень
душно
1008.6 1005.3 +32.6
00 12.07 ЮВ 2 6000 м 6/1 480 м
[Cu med, cong Ci fib]
+24.0 +22.3 90 +31 +33 очень
душно
1010.4 1007.2 +22.8
03 12.07 Ю 4 7000 м 6/1 500 м
[Sc Ac trans Ci fib]
+29.8 +22.3 64 +39 +46 очень
душно
1010.5 1007.3
06 12.07 ЮЗ 3 7000 м 4/4 450 м
[Cu med, cong Ci fib]
+32.5 +21.0 51 +40 +48 очень
душно
1008.3 1005.1
09 12.07 Ю 3 7000 м 3/3 500 м
[Cu med, cong Ci fib]
+31.7 +21.2 54 +39 +41 очень
душно
1006.7 1003.5
00 13.07 ЮВ 2 7000 м 3/1 500 м
[Sc Ac trans Ci fib]
+24.5 +21.8 85 +31 +34 очень
душно
1009.1 1005.9 +23.0
03 13.07 Ю 3 9000 м 1/1 400 м
[Cu hum]
+29.9 +21.9 62 +38 +52 опасность
солнечного
удара
1009.7 1006.5
06 13.07 Ю 2 9000 м 4/4 420 м
[Cu med, cong]
+33.2 +23.0 55 +43 +53 опасность
перегрева
1007.3 1004.1
09 13.07 ЮВ 2 8000 м 4/4 420 м
[Cu med, cong]
+31.7 +21.4 54 +39 +41 очень
душно
1005.5 1002.3
12 13.07 штиль 0 5000 м 3/3 450 м
[Cu med, cong]
+27.0 +23.8 83 +37 +37 очень
душно
1007.0 1003.8 +33.4
00 14.07 ЮВ 2 6000 м 8/6 500 м
[Sc diur, vesp Ac trans]
+24.4 +22.3 88 +32 +32 очень
душно
1009.5 1006.1 +22.5
03 14.07 ЮВ 2 8000 м 4/3 450 м
[Cu hum Ac trans]
+30.0 +22.9 66 +40 +50 очень
душно
1009.3 1006.0
06 14.07 Ю 4 9000 м 5/4 450 м
[Cu med, cong Ac trans Ci fib]
+32.2 +22.6 57 +42 +49 опасность
перегрева
1006.6 1003.3
09 14.07 Ю 3 7000 м 5/4 450 м
[Cu med, cong Ac trans Ci fib]
+31.7 +21.8 56 +40 +42 очень
душно
1005.6 1002.3
12 14.07 штиль 0 4000 м мгла 6/5 500 м
[Sc diur, vesp Ac trans]
+26.4 +23.7 85 +36 +36 очень
душно
1007.1 1003.8 +32.9
00 15.07 штиль 0 7000 м 1/1 500 м
[Sc diur, vesp Ci fib]
+23.4 +21.9 91 +32 +35 очень
душно
1010.3 1007.1 +22.2
03 15.07 Ю 4 9000 м 4/4 400 м
[Cu hum]
+29.6 +22.7 66 +39 +46 очень
душно
1010.3 1007.1
06 15.07 штиль 0 9000 м 6/6 420 м
[Cu med, cong]
+32.1 +21.6 54 +40 +49 очень
душно
1007.7 1004.5
09 15.07 Ю 2 8000 м 5/5 420 м
[Cu med, cong]
+31.8 +21.5 54 +40 +41 очень
душно
1007.1 1003.9
12 15.07 штиль 0 5000 м 5/3 420 м
[Cu med, cong Ac trans Ci fib]
+27.1 +24.3 85 +38 +38 очень
душно
1008.2 1005.0 +33.0
00 16.07 штиль 0 6000 м 3/1 480 м
[Sc Ac trans]
+23.9 +22.5 92 +31 +34 очень
душно
1009.3 1006.1 +23.6

 

Местоположение метеостанции Sintang (Индонезия): широта 0.12 долгота 111.53 высота над уровнем моря 30 м.

В архиве по умолчанию представлена погода в Sintang за последнюю неделю. Архивные данные за месяц целиком и за предыдущие месяцы, начиная с января 2011 года, Вы можете получить, выбрав интересующий диапазон дат из раскрывающегося списка и нажав кнопку "Ввод!".


*Определитесь, кто Вы:
робот инопланетянин человек

Внимание! Время в таблицах - всемирное. Для получения местного времени необходимо прибавить поправку, которая в Sintang равна 7 ч.

Смотрите также архив погоды в соседних городах и на ближайших метеорологических станциях:

Погода в Nangapinoh (Индонезия) (59 км)
Погода в Putussibau (Индонезия) (176 км)
Погода в Kuching (Малайзия) (202 км)
Погода в Pontianak (Индонезия) (239 км)
Погода в Sibu (Малайзия) (248 км)
Погода в Ketapang (Индонезия) (280 км)
Погода в Palangkaraya (Индонезия) (302 км)
Погода в Paloh (Индонезия) (309 км)
Погода в Pangkalan Bun (Индонезия) (314 км)
Погода в Bintulu (Малайзия) (381 км)

Пояснения к столбцам:

Ветер - указаны скорость ветра в м/с - средняя за 10 мин, порывы в срок и между сроками (в фигурных скобках) и направление, откуда дует ветер: С - северный, СВ - северо-восточный, В - восточный, ЮВ - юго-восточный, Ю - южный, ЮЗ - юго-западный, З - западный, СЗ - северо-западный.
Видимость - горизонтальная дальность видимости в метрах или километрах. При видимости от 1 до 10 км при отсутствии осадков обычно наблюдается дымка, при ухудшении видимости до 1 км и менее - туман. В сухую погоду видимость может ухудшаться дымом, пылью или мглою.
Явления - указаны атмосферные явления, наблюдавшиеся в срок или в последний час перед сроком; фигурными скобками обозначены явления, наблюдавшиеся между сроками (за 1-3 часа до срока); квадратными скобками обозначены град или гололедные отложения с указанием их диаметра в мм.
Облачность - указаны через наклонную черту общая и нижняя облачность в баллах и высота нижней границы облаков в метрах; квадратными скобками обозначены формы облаков: Ci - перистые, Cs - перисто-слоистые, Cc - перисто-кучевые, Ac - высококучевые, As - высокослоистые, Sc - слоисто-кучевые, Ns - слоисто-дождевые, Cu - кучевые, Cb - кучево-дождевые. Подробнее классификацию облаков см. в Атласе облаков (PDF).
T - Температура воздуха - температура, измеренная на высоте 2 м над землей.
Td - Температура точки росы - температура, при понижении до которой содержащийся в воздухе водяной пар достигнет насыщения.
f - Относительная влажность воздуха - влажноcть воздуха, измеренная на высоте 2 м над землей.
Te - Эффективная температура - температура, которую ощущает одетый по сезону человек в тени. Характеристика душности погоды. При расчете учитывается влияние влажности воздуха и скорости ветра на теплоощущения человека.
Tes - Эффективная температура на солнце - температура, которую ощущает человек, с поправкой на солнечный нагрев. Характеристика знойности погоды. Зависит от высоты солнца над горизонтом, облачности и скорости ветра. Ночью, в пасмурную погоду, а также при ветре 12 м/с и более поправка равна нулю.
P - Атмосферное давление - приведенное к уровню моря атмосферное давление.
Po - Атмосферное давление - измеренное на уровне метеостанции атмосферное давление.
Tmin - Минимальная температура - минимум температуры воздуха на высоте 2 м над землей.
Tmax - Максимальная температура - максимум температуры воздуха на высоте 2 м над землей.
R - Количество осадков - Количество выпавших осадков за период времени, мм. При наведении курсора мыши на число - период времени, за который выпало указанное количество осадков.
R24 - Количество осадков - Количество выпавших осадков за 24 часа, мм.
S - Снежный покров - Высота снежного покрова, см. При наведении курсора мыши на число - состояние снежного покрова и степень покрытия местности в баллах.